Regional Weather Roundup
Issued by NWS Jackson, KY

Home | Current Version | Previous Version | Text Only | Print | Product List | Glossary On
Versions: 1 2 3 4 5 6 7 8 9 10 11 12 13 14 15 16 17 18 19 20 21 22 23 24 25 26 27 28 29 30 31 32 33 34 35 36 37 38 39 40 41 42 43 44 45 46 47 48 49 50
000
ASUS43 KJKL 030310
RWRJKL

EAST KENTUCKY HOURLY WEATHER ROUNDUP
NATIONAL WEATHER SERVICE JACKSON KY
1100 PM EDT TUE JUN 02 2015

NOTE: "FAIR" INDICATES FEW OR NO CLOUDS BELOW 12,000 FEET WITH
NO SIGNIFICANT WEATHER AND/OR OBSTRUCTIONS TO VISIBILITY.

* THESE REPORTS ARE NOT UNDER NWS QUALITY CONTROL AND MAY NOT
  REPORT WEATHER SUCH AS PRECIPITATION AND FOG.

KYZ079-080-083-085-087-088-110-112-115-119-120-030400
...EASTERN KENTUCKY...

CITY           SKY/WX    TMP DP  RH WIND       PRES   REMARKS
JACKSON        CLOUDY    57  55  93 CALM      30.09S FOG
LONDON         CLOUDY    61  54  77 NE6       30.08R
SOMERSET*      CLOUDY    59  54  82 NE9       30.10R
MONTICELLO*    CLOUDY    62  58  87 NE6       30.10R
MIDDLESBORO*   CLOUDY    63  59  86 N5        30.07R
HARLAN APT*    CLOUDY    61  57  88 CALM      30.08R
HAZARD APT*    CLOUDY    59  59 100 CALM      30.09S FOG
BLACK MTN*       N/A     52  52 100 N1          N/A
PIKEVILLE APT* FOG       55  55 100 N5        30.09R VSB 3/4
BIG SANDY*     CLOUDY    57  56  97 CALM      30.10R FOG
MOREHEAD APT*  CLOUDY    59  55  88 NE3       30.13S
$$

KYZ035-036-041-042-044-050-067-078-099-030400
...CENTRAL KENTUCKY...

CITY           SKY/WX    TMP DP  RH WIND       PRES   REMARKS
MT STERLING*   CLOUDY    59  55  88 NE3       30.12S
FLEMING/MASON* CLOUDY    57  55  94 NE3       30.13R
DANVILLE*      CLOUDY    55  52  88 NE3       30.11R
RICHMOND*      CLOUDY    57  54  88 N3        30.10R
LEXINGTON      CLOUDY    59  54  83 E5        30.11R
FRANKFORT      CLOUDY    60  53  77 CALM      30.10R
$$

KYZ091>093-OHZ055-061-077-WVZ005-015-034-035-042-030400
...SOUTHERN OHIO/WEST VIRGINIA...

CITY           SKY/WX    TMP DP  RH WIND       PRES   REMARKS
COVINGTON      CLOUDY    60  53  77 CALM      30.11
COLUMBUS       CLOUDY    58  53  84 NE3       30.12R
DAYTON         MOCLDY    59  54  83 NW6       30.12R
WILMINGTON     CLEAR     56  51  84 SE3       30.12R
HUNTINGTON     CLOUDY    58  55  90 N5        30.09S
CHARLESTON     CLOUDY    59  56  89 NE3       30.07F
PINEVILLE*     CLOUDY    62  59  91 MISG      30.13R
BECKLEY        CLOUDY    58  55  90 N5        30.09R
BLUEFIELD      CLOUDY    63  59  87 W5        30.10R
$$

VAZ002-007-008-TNZ017-027-036-066-071-030400
...SOUTHWEST VIRGINIA/EAST TENNESSEE...

CITY           SKY/WX    TMP DP  RH WIND       PRES   REMARKS
WISE*          FOG       57  57 100 NE5       30.10S VSB<1/4
JONESVILLE*    CLOUDY    64  61  88 CALM      30.08R
ABINGDON*      FOG       61  61 100 E6        30.06S VSB 1
BRISTOL        PTCLDY    60  58  92 CALM      30.04R
KNOXVILLE      MOCLDY    64  62  93 NE6       30.00R
OAK RIDGE      CLOUDY    67  59  75 CALM      30.03R
CROSSVILLE     PTCLDY    62  57  83 N5        30.06S
NASHVILLE      MOCLDY    64  60  87 N8        30.05S
$$

...KEY TO REMARKS...
VSB - VISIBILITY IN MILES
WCI - WIND CHILL INDEX
HX  - HEAT INDEX

$$



USA.gov is the U.S. government's official web portal to all federal, state and local government web resources and services.